KJ4EBE Weather Reports


time (UTC)temp
F
wind
direction
speed
knots
gust
knots
rain 1hr
in
rain 24hr
in
rain mn
in
humidity
%
barometer
mb
20260506092455 74 58 0.9 1.7 0.00 0.00 0.00 94 1008.5
20260506091951 74 193 0.0 1.7 0.00 0.00 0.00 94 1008.6
20260506091450 74 48 0.0 0.9 0.00 0.00 0.00 94 1008.5
20260506090947 74 229 0.0 1.7 0.00 0.00 0.00 94 1008.3
20260506090445 74 68 0.9 1.7 0.00 0.00 0.00 94 1008.2
20260506085941 74 92 0.0 3.5 0.00 0.00 0.00 94 1008.3
20260506085438 74 75 1.7 1.7 0.00 0.00 0.00 94 1008.2
20260506084934 74 120 0.9 1.7 0.00 0.00 0.00 94 1008.2
20260506084431 75 216 0.0 1.7 0.00 0.00 0.00 94 1008.1
20260506083927 75 277 0.9 1.7 0.00 0.00 0.00 94 1008.2
20260506083425 75 200 0.9 1.7 0.00 0.00 0.00 93 1008.1
20260506082922 75 33 0.0 0.9 0.00 0.00 0.00 93 1008.1
20260506082419 75 217 1.7 2.6 0.00 0.00 0.00 93 1008.2
20260506081914 75 313 0.9 1.7 0.00 0.00 0.00 93 1007.7
20260506081413 75 49 0.9 1.7 0.00 0.00 0.00 93 1008.1
20260506080910 75 269 0.0 1.7 0.00 0.00 0.00 93 1008.2
20260506080407 75 119 0.0 1.7 0.00 0.00 0.00 93 1008.1
20260506073351 75 315 0.0 2.6 0.00 0.00 0.00 93 1008.4
20260506072847 75 224 0.0 2.6 0.00 0.00 0.00 93 1008.5
20260506072345 75 274 0.0 2.6 0.00 0.00 0.00 93 1008.5
20260506071843 75 31 0.0 2.6 0.00 0.00 0.00 93 1008.8
20260506071341 75 230 1.7 2.6 0.00 0.00 0.00 93 1008.6
20260506070837 75 326 0.0 3.5 0.00 0.00 0.00 93 1008.5
20260506070334 75 209 1.7 2.6 0.00 0.00 0.00 93 1008.3
20260506062312 75 282 0.0 2.6 0.00 0.00 0.00 93 1008.6
20260506061807 75 218 0.0 0.9 0.00 0.00 0.00 94 1008.5
20260506061304 75 62 0.0 0.9 0.00 0.00 0.00 94 1008.4
20260506060803 75 53 0.0 2.6 0.00 0.00 0.00 94 1008.4
20260506060300 75 289 0.0 2.6 0.00 0.00 0.00 94 1008.2
20260506051232 74 155 1.7 3.5 0.00 0.00 0.00 94 1007.2
20260506050730 74 180 0.9 3.5 0.00 0.00 0.00 93 1007.4
20260506050227 74 202 0.0 2.6 0.00 0.00 0.00 93 1007.4
20260506044718 75 37 0.0 1.7 0.00 0.00 0.00 92 1007.5
20260506044215 75 206 0.9 2.6 0.00 0.00 0.00 92 1007.5
20260506043712 75 344 1.7 6.1 0.00 0.00 0.00 91 1007.4
20260506043210 75 216 1.7 2.6 0.00 0.00 0.00 91 1007.3
20260506042709 75 245 0.0 2.6 0.00 0.00 0.00 91 1007.2
20260506042206 75 162 0.0 1.7 0.00 0.00 0.00 91 1007.2
20260506041705 75 44 0.0 2.6 0.00 0.00 0.00 91 1007.2
20260506041201 75 75 0.0 1.7 0.00 0.00 0.00 90 1007.4
20260506040658 75 11 0.0 1.7 0.00 0.00 0.00 90 1007.4
20260506040155 75 50 0.0 2.6 0.00 0.00 0.00 90 1007.2
20260506035652 75 249 0.0 3.5 0.00 0.00 0.00 90 1007.2
20260506035149 75 164 0.0 2.6 0.00 0.00 0.00 89 1007.5
20260506034646 75 140 0.0 2.6 0.00 0.00 0.00 89 1007.4
20260506034143 75 104 0.0 2.6 0.00 0.00 0.00 89 1007.0
20260506033640 75 245 0.0 2.6 0.00 0.00 0.00 89 1007.1
20260506033137 76 71 0.0 2.6 0.00 0.00 0.00 88 1007.0
20260506032634 76 238 0.0 3.5 0.00 0.00 0.00 88 1007.1
20260506032131 76 210 2.6 2.6 0.00 0.00 0.00 88 1007.1
20260506031628 76 61 0.0 3.5 0.00 0.00 0.00 87 1006.9
20260506031125 76 217 2.6 4.3 0.00 0.00 0.00 87 1006.9
20260506030624 76 322 0.0 2.6 0.00 0.00 0.00 86 1006.9
20260506030120 76 296 0.0 3.5 0.00 0.00 0.00 86 1007.1
20260506025617 76 217 0.0 3.5 0.00 0.00 0.00 86 1006.7
20260506025113 76 105 0.9 4.3 0.00 0.00 0.00 86 1006.6
20260506024611 77 208 0.9 3.5 0.00 0.00 0.00 85 1006.5
20260506024107 77 226 0.0 1.7 0.00 0.00 0.00 85 1006.4
20260506023603 77 230 0.0 1.7 0.00 0.00 0.00 85 1006.2
20260506023101 77 319 0.9 1.7 0.00 0.00 0.00 84 1006.1
20260506022558 77 164 0.0 2.6 0.00 0.00 0.00 84 1006.2
20260506022055 77 244 0.0 1.7 0.00 0.00 0.00 84 1006.3
20260506021553 77 64 0.9 2.6 0.00 0.00 0.00 84 1006.3
20260506021050 77 337 0.0 3.5 0.00 0.00 0.00 83 1006.2
20260506020547 78 142 0.9 2.6 0.00 0.00 0.00 83 1006.1
20260506020044 78 230 0.0 0.9 0.00 0.00 0.00 83 1006.1
20260506015542 78 150 0.0 2.6 0.00 0.00 0.00 82 1006.1
20260506015039 78 77 0.9 2.6 0.00 0.00 0.00 82 1005.7
20260506014536 78 208 0.0 2.6 0.00 0.00 0.00 82 1005.8
20260506014032 79 22 0.0 1.7 0.00 0.00 0.00 81 1005.7
20260506013531 79 118 0.9 4.3 0.00 0.00 0.00 81 1005.8
20260506013026 79 60 1.7 3.5 0.00 0.00 0.00 81 1005.6
20260506012522 79 49 0.9 4.3 0.00 0.00 0.00 80 1005.4
20260506012020 79 185 1.7 2.6 0.00 0.00 0.00 80 1005.5
20260506011517 80 164 0.0 4.3 0.00 0.00 0.00 79 1005.5
20260506011014 80 135 1.7 1.7 0.00 0.00 0.00 79 1005.3
20260506010513 80 39 1.7 2.6 0.00 0.00 0.00 78 1005.3
20260506010009 80 288 0.0 1.7 0.00 0.00 0.00 78 1005.5
20260506005507 81 251 0.9 2.6 0.00 0.00 0.00 77 1005.3
20260506005002 81 191 1.7 3.5 0.00 0.00 0.00 76 1005.3
20260506004500 81 193 5.2 7.8 0.00 0.00 0.00 76 1005.3
20260506003955 82 213 1.7 4.3 0.00 0.00 0.00 75 1005.0
20260506003452 82 216 5.2 6.1 0.00 0.00 0.00 74 1005.2
20260506002948 82 78 0.9 4.3 0.00 0.00 0.00 74 1005.1
20260506002445 83 139 1.7 5.2 0.00 0.00 0.00 73 1005.3
20260506001940 83 75 0.0 2.6 0.00 0.00 0.00 73 1005.3
20260506001437 84 154 1.7 3.5 0.00 0.00 0.00 72 1005.3
20260506000935 85 249 0.9 3.5 0.00 0.00 0.00 71 1005.3
20260506000432 85 193 0.0 3.5 0.00 0.00 0.00 71 1005.2
20260505235929 85 117 0.9 1.7 0.00 0.00 0.00 71 1005.2
20260505235427 85 48 0.0 1.7 0.00 0.00 0.00 70 1005.4
20260505234923 85 79 0.9 3.5 0.00 0.00 0.00 70 1005.3
20260505234421 86 169 1.7 4.3 0.00 0.00 0.00 70 1005.2
20260505233917 86 254 1.7 3.5 0.00 0.00 0.00 67 1005.3
20260505233416 86 39 0.0 2.6 0.00 0.00 0.00 64 1005.2
20260505232913 86 169 1.7 1.7 0.00 0.00 0.00 63 1005.1
20260505232411 86 243 0.0 1.7 0.00 0.00 0.00 64 1005.1
20260505231907 87 244 1.7 4.3 0.00 0.00 0.00 63 1005.2
20260505231405 87 193 3.5 4.3 0.00 0.00 0.00 62 1005.2
20260505230903 88 245 0.9 2.6 0.00 0.00 0.00 62 1005.1
20260505230400 87 231 0.0 4.3 0.00 0.00 0.00 64 1005.1
20260505225856 87 314 0.0 0.9 0.00 0.00 0.00 62 1004.9
20260505225354 87 215 0.0 4.3 0.00 0.00 0.00 64 1005.0
20260505224848 87 136 5.2 6.1 0.00 0.00 0.00 64 1005.0
20260505224347 88 209 0.9 7.8 0.00 0.00 0.00 62 1005.0
20260505223843 89 252 4.3 5.2 0.00 0.00 0.00 62 1005.0
20260505223340 88 78 4.3 5.2 0.00 0.00 0.00 63 1005.0
20260505222836 88 136 0.9 6.1 0.00 0.00 0.00 62 1005.2
20260505222332 88 57 0.0 2.6 0.00 0.00 0.00 62 1005.0
20260505221830 89 225 1.7 4.3 0.00 0.00 0.00 62 1005.1
20260505221326 89 240 3.5 5.2 0.00 0.00 0.00 62 1005.1
20260505220823 89 346 1.7 3.5 0.00 0.00 0.00 63 1005.0
20260505220320 88 158 1.7 5.2 0.00 0.00 0.00 64 1004.9
20260505215818 88 208 1.7 3.5 0.00 0.00 0.00 63 1005.0
20260505215316 89 229 1.7 4.3 0.00 0.00 0.00 62 1005.1
20260505214814 89 215 2.6 4.3 0.00 0.00 0.00 62 1005.1
20260505214311 89 224 3.5 3.5 0.00 0.00 0.00 63 1005.1
20260505213808 90 134 0.9 2.6 0.00 0.00 0.00 62 1005.1
20260505213306 88 217 2.6 6.1 0.00 0.00 0.00 64 1005.4
20260505212801 88 336 0.0 5.2 0.00 0.00 0.00 64 1005.4
20260505212259 88 240 4.3 4.3 0.00 0.00 0.00 63 1005.5
20260505211755 88 298 1.7 2.6 0.00 0.00 0.00 64 1005.4
20260505211253 88 49 2.6 4.3 0.00 0.00 0.00 65 1005.4
20260505210749 91 254 4.3 4.3 0.00 0.00 0.00 60 1005.5
20260505210246 89 121 0.0 1.7 0.00 0.00 0.00 66 1005.5
20260505205743 89 217 2.6 3.5 0.00 0.00 0.00 62 1005.5
20260505205241 88 249 3.5 5.2 0.00 0.00 0.00 64 1005.6
20260505204737 89 269 0.0 6.1 0.00 0.00 0.00 64 1005.7
20260505204236 88 176 1.7 4.3 0.00 0.00 0.00 65 1005.9
20260505203732 89 139 0.9 5.2 0.00 0.00 0.00 65 1006.0
20260505203229 88 191 2.6 7.8 0.00 0.00 0.00 64 1006.0
20260505202725 89 298 0.9 3.5 0.00 0.00 0.00 63 1006.0
20260505202221 88 152 0.9 4.3 0.00 0.00 0.00 64 1005.8
20260505201718 88 282 2.6 4.3 0.00 0.00 0.00 63 1005.9
20260505201216 88 76 0.0 5.2 0.00 0.00 0.00 64 1005.7
20260505200714 89 145 0.0 5.2 0.00 0.00 0.00 62 1005.9
20260505200210 89 59 0.9 7.8 0.00 0.00 0.00 64 1005.8
20260505195706 89 69 1.7 3.5 0.00 0.00 0.00 63 1005.8
20260505195204 88 49 3.5 6.1 0.00 0.00 0.00 64 1006.0
20260505194701 87 181 0.0 4.3 0.00 0.00 0.00 66 1006.1
20260505194157 87 243 1.7 4.3 0.00 0.00 0.00 64 1006.1
20260505193653 87 93 4.3 7.0 0.00 0.00 0.00 64 1006.0
20260505193151 87 216 2.6 7.0 0.00 0.00 0.00 65 1006.1
20260505192649 86 197 1.7 5.2 0.00 0.00 0.00 66 1006.4
20260505192146 86 238 3.5 9.6 0.00 0.00 0.00 66 1006.3
20260505191645 86 113 2.6 5.2 0.00 0.00 0.00 67 1006.3
20260505191142 86 99 4.3 5.2 0.00 0.00 0.00 68 1006.4
20260505190638 86 271 3.5 8.7 0.00 0.00 0.00 68 1006.4
20260505190133 85 207 2.6 5.2 0.00 0.00 0.00 68 1006.3
20260505185630 85 123 4.3 9.6 0.00 0.00 0.00 69 1006.5
20260505185126 85 108 0.0 5.2 0.00 0.00 0.00 71 1006.9
20260505184623 85 271 0.0 6.1 0.00 0.00 0.00 70 1006.9
20260505184120 84 155 0.0 7.8 0.00 0.00 0.00 71 1006.7
20260505183616 84 111 1.7 6.1 0.00 0.00 0.00 71 1007.0
20260505183114 85 103 0.0 7.0 0.00 0.00 0.00 72 1007.1
20260505182610 85 245 5.2 9.6 0.00 0.00 0.00 69 1007.1
20260505182107 85 109 0.0 7.8 0.00 0.00 0.00 70 1007.2
20260505181604 84 248 1.7 5.2 0.00 0.00 0.00 70 1007.0
20260505181101 84 202 2.6 7.0 0.00 0.00 0.00 71 1007.3
20260505180556 83 192 0.9 7.0 0.00 0.00 0.00 72 1007.3
20260505180055 83 145 3.5 7.0 0.00 0.00 0.00 71 1007.4
20260505175550 84 220 0.0 4.3 0.00 0.00 0.00 70 1007.3
20260505175047 84 123 0.0 3.5 0.00 0.00 0.00 71 1007.6
20260505174544 83 190 3.5 9.6 0.00 0.00 0.00 71 1007.6
20260505174040 82 25 0.0 10.4 0.00 0.00 0.00 75 1007.6
20260505173537 84 60 1.7 7.8 0.00 0.00 0.00 71 1007.4
20260505173034 83 215 1.7 3.5 0.00 0.00 0.00 72 1007.5
20260505172532 82 268 4.3 7.0 0.00 0.00 0.00 72 1007.6
20260505172028 83 256 6.1 7.0 0.00 0.00 0.00 71 1007.8
20260505171522 83 250 7.0 9.6 0.00 0.00 0.00 72 1007.6
20260505171020 82 262 0.9 4.3 0.00 0.00 0.00 74 1007.5
20260505170516 81 242 3.5 12.2 0.00 0.00 0.00 74 1007.5
20260505170012 82 137 0.0 5.2 0.00 0.00 0.00 73 1007.3
20260505165507 81 240 0.9 10.4 0.00 0.00 0.00 73 1007.2
20260505165004 81 244 6.1 11.3 0.00 0.00 0.00 73 1007.3
20260505164500 80 227 3.5 13.0 0.00 0.00 0.00 74 1007.4
20260505163958 81 181 2.6 4.3 0.00 0.00 0.00 74 1007.4
20260505163456 80 263 3.5 8.7 0.00 0.00 0.00 74 1007.4
20260505162956 80 262 2.6 9.6 0.00 0.00 0.00 75 1007.3
20260505162451 80 175 2.6 6.1 0.00 0.00 0.00 75 1007.4
20260505161948 80 193 3.5 8.7 0.00 0.00 0.00 75 1007.5
20260505161444 80 154 1.7 5.2 0.00 0.00 0.00 75 1007.8
20260505160942 79 236 1.7 7.8 0.00 0.00 0.00 76 1007.6
20260505160440 79 159 1.7 7.0 0.00 0.00 0.00 76 1007.8
20260505152916 78 256 1.7 7.8 0.00 0.00 0.00 79 1007.6
20260505152413 77 203 2.6 6.1 0.00 0.00 0.00 80 1007.6
20260505151908 77 195 5.2 5.2 0.00 0.00 0.00 80 1007.6
20260505151405 77 259 3.5 10.4 0.00 0.00 0.00 80 1007.6
20260505150902 77 242 1.7 5.2 0.00 0.00 0.00 80 1007.6
20260505150359 76 216 1.7 9.6 0.00 0.00 0.00 82 1007.6
20260505140328 73 53 1.7 6.1 0.00 0.00 0.00 87 1007.5
20260505130252 72 60 2.6 6.1 0.00 0.00 0.00 89 1006.8
20260505124742 71 274 0.9 7.0 0.00 0.00 0.00 89 1006.7
20260505124239 71 324 1.7 5.2 0.00 0.00 0.00 89 1006.4
20260505123734 71 271 1.7 5.2 0.00 0.00 0.00 89 1006.4
20260505123231 71 206 0.0 6.1 0.00 0.00 0.00 90 1006.4
20260505122728 71 214 3.5 6.1 0.00 0.00 0.00 90 1006.3
20260505122225 71 178 2.6 7.0 0.00 0.00 0.00 90 1006.2
20260505121717 71 105 0.9 3.5 0.00 0.00 0.00 90 1006.2
20260505121213 71 215 0.0 5.2 0.00 0.00 0.00 90 1006.4
20260505120710 71 323 1.7 2.6 0.00 0.00 0.00 91 1006.1
20260505120205 70 52 1.7 4.3 0.00 0.00 0.00 91 1006.2
20260505115658 70 330 0.0 3.5 0.00 0.00 0.00 91 1006.2
20260505115157 70 217 2.6 5.2 0.00 0.00 0.00 91 1006.0
20260505114654 70 324 0.9 4.3 0.00 0.00 0.00 91 1005.8
20260505114150 70 196 0.9 3.5 0.00 0.00 0.00 91 1006.0
20260505113647 70 53 3.5 5.2 0.00 0.00 0.00 91 1006.0
20260505113144 70 243 0.0 2.6 0.00 0.00 0.00 91 1006.1
20260505112640 70 231 0.9 2.6 0.00 0.00 0.00 91 1006.0
20260505112138 71 242 0.9 5.2 0.00 0.00 0.00 91 1005.9
20260505111637 71 311 1.7 3.5 0.00 0.00 0.00 90 1005.9
20260505111133 71 22 0.0 7.8 0.00 0.00 0.00 90 1006.0
20260505110629 71 68 0.0 6.1 0.00 0.00 0.00 90 1006.1
20260505110127 71 63 1.7 5.2 0.00 0.00 0.00 90 1006.3
20260505102102 71 88 1.7 8.7 0.00 0.00 0.00 90 1006.1
20260505101601 71 177 1.7 9.6 0.00 0.00 0.00 90 1006.1
20260505101057 71 227 3.5 4.3 0.00 0.00 0.00 90 1005.8
20260505100553 71 91 3.5 7.0 0.00 0.00 0.00 90 1005.9
20260505100050 71 100 0.0 6.1 0.00 0.00 0.00 90 1006.2
20260505095547 71 251 2.6 5.2 0.00 0.00 0.00 90 1006.0
20260505095043 71 162 1.7 6.1 0.00 0.00 0.00 90 1006.3
20260505094540 70 187 1.7 5.2 0.00 0.00 0.00 90 1006.4
20260505094036 70 245 0.0 2.6 0.00 0.00 0.00 90 1006.1
20260505093533 70 37 1.7 4.3 0.00 0.00 0.00 90 1006.1
20260505093030 70 158 0.9 5.2 0.00 0.00 0.00 90 1005.9